Location: Rounton
(54.4000°N, 1.3500°W)
Time: 14:08:34
(UTC+00:00)

Transit 2A - Pass Details

Date: 08 December 2021
Orbit: 591 x 967 km, 66.7° (Epoch: 21 January)

Event Time Altitude Azimuth Distance (km) Brightness Sun altitude
Rises 23:12:14 0° 204° (SSW) 3,363 - -57.3°
Reaches altitude 10° 23:14:36 10° 201° (SSW) 2,485 - -57.4°
Maximum altitude 23:20:19 60° 123° (ESE) 1,042 - -57.6°
Drops below altitude 10° 23:26:29 10° 45° (NE) 2,686 - -57.9°
Sets 23:29:09 0° 42° (NE) 3,655 - -58.0°
